User: anonymous   Login
Location: Forst
(46.9333°N, 15.4333°E)
Time: 05:02:25
(UTC+00:00)
Language:

USA 238 DEB - Orbit

View from above orbital plane
View from above orbital plane
View from above satellite
View from above satellite

Ground track
Ground track

The orbit data is extracted from the following two-line orbital elements,

1 38773U 12048P   21056.17624088 0.00000010  00000-0  16918-4 0    06
2 38773  63.4444 107.8417 0152094 359.6594   0.3406 13.40819001    05
Epoch (UTC): 25 February 2021 04:13:47
Eccentricity: 0.0152094
inclination: 63.4444°
perigee height: 992 km
apogee height: 1220 km
right ascension of ascending node: 107.8417°
argument of perigee: 359.6594°
revolutions per day: 13.40819001
mean anomaly at epoch: 0.3406°
orbit number at epoch: 0

The dashed part of the orbit path shows where the satellite is in the earth's shadow,  

DLR